Location: Banff
(51.1670°N, 115.5670°W)
Time: 06:51:06
(UTC-06:00)

Amateur Radio Satellites - All Passes

Search period start: 27 August 2014 06:21
Search period end: 28 August 2014 06:21
Location: Banff, 51.1670°N, 115.5670°W

Satellite Date Start Highest point End Downlink Frequencies (MHz)
Time Altitude Azimuth
Gurwin Techsat 1B 27 Aug 06:23:47 06:27:50 23° 303° (WNW) 06:31:52 435.225 FM
JAS-2 27 Aug 06:29:00 06:31:51 15° 87° (E) 06:34:45 435.800 - 435.900 CW/SSB, 435.910 FM
JAS-1B 27 Aug 06:59:55 07:04:29 17° 321° (NW) 07:08:38 435.800 - 435.900 CW/SSB
SO-50 27 Aug 07:02:52 07:07:21 62° 316° (NW) 07:11:58 436.795 FM
Saudisat 1A 27 Aug 07:09:31 07:13:14 25° 28° (NNE) 07:16:56 436.775 MHz
Uosat F 27 Aug 07:12:48 07:17:27 39° 295° (WNW) 07:22:05 435.120 FM
TMSAT-1 27 Aug 07:19:20 07:21:29 13° 312° (NW) 07:23:39 436.925 FM
KITSAT 1 27 Aug 07:25:49 07:33:02 33° 20° (NNE) 07:40:12 435.175 FM
STRAND 1 27 Aug 07:29:06 07:34:12 88° 254° (WSW) 07:39:21 ?
AO-7 27 Aug 07:38:55 07:46:53 53° 302° (WNW) 07:54:48 29.400 - 29.500 MHz
Hamsat 27 Aug 07:41:52 07:46:14 66° 102° (ESE) 07:50:34 145.90 MHz
UOSAT-12 27 Aug 07:44:19 07:48:42 43° 122° (ESE) 07:53:11 437.025 FM, 437.400 FM
SO-67 27 Aug 08:08:14 08:10:49 19° 92° (E) 08:13:23 435.3500 MHz FM
JAS-2 27 Aug 08:12:34 08:17:47 88° 286° (WNW) 08:23:09 435.800 - 435.900 CW/SSB, 435.910 FM
SO-50 27 Aug 08:45:16 08:48:47 21° 339° (NNW) 08:52:23 436.795 FM
Saudisat 1A 27 Aug 08:48:54 08:53:21 84° 229° (SW) 08:57:46 436.775 MHz
RS-15 27 Aug 08:59:03 09:09:06 43° 112° (ESE) 09:19:03 29.354 - 29.394 USB, Beacon 29.352 USB
STRAND 1 27 Aug 09:11:22 09:14:10 15° 273° (W) 09:16:58 ?
Hamsat 27 Aug 09:18:44 09:21:46 19° 301° (WNW) 09:24:46 145.90 MHz
KITSAT 1 27 Aug 09:21:42 09:29:50 73° 47° (NE) 09:37:53 435.175 FM
UOSAT-12 27 Aug 09:24:29 09:28:56 41° 323° (NW) 09:33:26 437.025 FM, 437.400 FM
AO-7 27 Aug 09:32:41 09:37:56 19° 326° (NW) 09:43:11 29.400 - 29.500 MHz
SO-67 27 Aug 09:40:48 09:44:01 35° 291° (WNW) 09:47:12 435.3500 MHz FM
HO-68 27 Aug 09:44:00 09:49:44 25° 90° (E) 09:55:25 435.675 MHz FM
JAS-2 27 Aug 09:59:03 10:02:15 17° 307° (NW) 10:05:29 435.800 - 435.900 CW/SSB, 435.910 FM
SO-50 27 Aug 10:28:05 10:31:00 16° 4° (N) 10:33:57 436.795 FM
Saudisat 1A 27 Aug 10:29:58 10:32:16 14° 249° (WSW) 10:34:33 436.775 MHz
UKube-1 27 Aug 10:47:06 10:51:06 35° 97° (E) 10:55:04 145.840 MHz, 145.915 MHz
Oscar 11 27 Aug 10:57:14 11:01:09 31° 95° (E) 11:05:02 145.825 FM, Beacon 2401.500 USB
UOSAT-12 27 Aug 11:06:59 11:10:16 18° 346° (NNW) 11:13:35 437.025 FM, 437.400 FM
RS-15 27 Aug 11:09:51 11:20:51 73° 318° (NW) 11:31:51 29.354 - 29.394 USB, Beacon 29.352 USB
FUNcube-1 27 Aug 11:12:46 11:16:08 21° 91° (E) 11:19:32 145.950 - 145.970 MHz USB
KITSAT 1 27 Aug 11:17:36 11:24:44 36° 249° (WSW) 11:31:51 435.175 FM
HO-68 27 Aug 11:31:02 11:38:13 80° 291° (WNW) 11:45:23 435.675 MHz FM
SO-50 27 Aug 12:09:00 12:13:03 27° 28° (NNE) 12:17:10 436.795 FM
JAS-1B 27 Aug 12:19:47 12:25:32 19° 41° (NE) 12:30:52 435.800 - 435.900 CW/SSB
UKube-1 27 Aug 12:23:25 12:27:16 31° 296° (WNW) 12:31:05 145.840 MHz, 145.915 MHz
Oscar 16 27 Aug 12:27:58 12:30:58 16° 52° (NE) 12:33:59 437.025 USB, Beacon 2401.1428
Oscar 11 27 Aug 12:33:23 12:37:23 35° 294° (WNW) 12:41:21 145.825 FM, Beacon 2401.500 USB
ISS 27 Aug 12:36:04 12:37:18 12° 137° (SE) 12:38:31 145.800 FM
AO-27 27 Aug 12:47:15 12:48:59 12° 47° (NE) 12:50:42 436.795 MHz FM
FUNcube-1 27 Aug 12:48:29 12:52:51 56° 289° (WNW) 12:57:18 145.950 - 145.970 MHz USB
UOSAT-12 27 Aug 12:48:55 12:52:08 18° 11° (N) 12:55:20 437.025 FM, 437.400 FM
AO-Echo 27 Aug 12:51:54 12:53:39 12° 51° (NE) 12:55:23 ?
AO-7 27 Aug 13:13:40 13:16:36 12° 21° (NNE) 13:19:31 29.400 - 29.500 MHz
HO-68 27 Aug 13:19:40 13:25:00 23° 313° (NW) 13:30:19 435.675 MHz FM
RS-15 27 Aug 13:24:57 13:35:11 42° 349° (NNW) 13:45:33 29.354 - 29.394 USB, Beacon 29.352 USB
Oscar 19 27 Aug 13:30:33 13:35:22 41° 65° (ENE) 13:40:14 437.125 CW, 437.150 USB
TMSAT-1 27 Aug 13:47:29 13:49:55 13° 49° (NE) 13:52:21 436.925 FM
SO-50 27 Aug 13:49:24 13:54:10 85° 230° (SW) 13:59:01 436.795 FM
ITAMSAT 1 27 Aug 13:54:55 13:59:30 33° 62° (ENE) 14:04:07 435.822 SSB
Oscar 16 27 Aug 14:04:23 14:09:32 77° 72° (ENE) 14:14:44 437.025 USB, Beacon 2401.1428
JAS-1B 27 Aug 14:05:07 14:14:24 53° 63° (ENE) 14:22:41 435.800 - 435.900 CW/SSB
Uribyol 2 27 Aug 14:05:32 14:10:21 42° 65° (ENE) 14:15:12 436.500 FM
ISS 27 Aug 14:10:11 14:13:23 46° 155° (SSE) 14:16:36 145.800 FM
AO-27 27 Aug 14:22:24 14:27:26 54° 68° (ENE) 14:32:30 436.795 MHz FM
MaSat-1 27 Aug 14:22:29 14:26:14 22° 104° (ESE) 14:30:07 437.345 MHz
AO-Echo 27 Aug 14:26:35 14:31:32 60° 70° (ENE) 14:36:22 ?
UOSAT-12 27 Aug 14:29:08 14:33:34 37° 35° (NE) 14:37:57 437.025 FM, 437.400 FM
Gurwin Techsat 1B 27 Aug 14:30:25 14:35:05 33° 62° (ENE) 14:39:47 435.225 FM
AO-7 27 Aug 14:59:53 15:06:47 30° 47° (NE) 15:13:40 29.400 - 29.500 MHz
Oscar 19 27 Aug 15:10:07 15:14:48 35° 264° (W) 15:19:33 437.125 CW, 437.150 USB
Uosat F 27 Aug 15:16:17 15:19:14 16° 53° (NE) 15:22:11 435.120 FM
TMSAT-1 27 Aug 15:23:39 15:28:52 62° 70° (ENE) 15:34:06 436.925 FM
SO-50 27 Aug 15:31:14 15:34:06 16° 249° (WSW) 15:37:00 436.795 FM
ITAMSAT 1 27 Aug 15:34:00 15:38:55 43° 262° (W) 15:43:52 435.822 SSB
RS-15 27 Aug 15:40:00 15:50:30 48° 22° (NNE) 16:01:15 29.354 - 29.394 USB, Beacon 29.352 USB
Uribyol 2 27 Aug 15:45:17 15:49:56 34° 264° (W) 15:54:38 436.500 FM
Oscar 16 27 Aug 15:46:00 15:49:30 18° 272° (W) 15:53:02 437.025 USB, Beacon 2401.1428
ISS 27 Aug 15:46:42 15:50:02 82° 355° (N) 15:53:23 145.800 FM
JAS-1B 27 Aug 15:55:23 16:04:54 53° 262° (W) 16:13:31 435.800 - 435.900 CW/SSB
MaSat-1 27 Aug 15:57:46 16:02:48 74° 305° (NW) 16:08:02 437.345 MHz
AO-27 27 Aug 16:02:58 16:07:17 26° 267° (W) 16:11:36 436.795 MHz FM
AO-Echo 27 Aug 16:06:47 16:10:41 22° 268° (W) 16:14:31 ?
UOSAT-12 27 Aug 16:09:18 16:13:55 52° 236° (SW) 16:18:28 437.025 FM, 437.400 FM
Gurwin Techsat 1B 27 Aug 16:09:50 16:14:56 46° 261° (W) 16:20:04 435.225 FM
JAS-2 27 Aug 16:48:00 16:51:18 16° 52° (NE) 16:54:27 435.800 - 435.900 CW/SSB, 435.910 FM
AO-7 27 Aug 16:50:22 16:58:44 89° 249° (WSW) 17:07:08 29.400 - 29.500 MHz
Uosat F 27 Aug 16:52:17 16:57:18 81° 72° (ENE) 17:02:20 435.120 FM
TMSAT-1 27 Aug 17:05:02 17:09:13 23° 269° (W) 17:13:26 436.925 FM
Hamsat 27 Aug 17:06:44 17:08:58 14° 56° (NE) 17:11:12 145.90 MHz
ISS 27 Aug 17:23:28 17:26:49 77° 195° (SSW) 17:30:08 145.800 FM
MaSat-1 27 Aug 17:36:53 17:40:46 21° 326° (NW) 17:44:40 437.345 MHz
Sapphire 27 Aug 17:52:31 17:56:01 18° 106° (ESE) 17:59:31 437.095 MHz 1200 baud AX-25 AFSK
JAS-1B 27 Aug 17:53:01 17:57:16 14° 283° (WNW) 18:01:23 435.800 - 435.900 CW/SSB
RS-15 27 Aug 17:53:03 18:04:07 87° 231° (SW) 18:15:34 29.354 - 29.394 USB, Beacon 29.352 USB
OPAL 27 Aug 17:56:29 18:01:26 41° 100° (E) 18:06:21 ?
PCSat 27 Aug 18:20:51 18:25:32 31° 112° (ESE) 18:30:14 145.825 MHz
JAS-2 27 Aug 18:29:32 18:35:40 72° 71° (ENE) 18:41:10 435.800 - 435.900 CW/SSB, 435.910 FM
Uosat F 27 Aug 18:33:34 18:36:43 17° 272° (W) 18:39:54 435.120 FM
HO-68 27 Aug 18:36:51 18:38:44 11° 31° (NNE) 18:40:37 435.675 MHz FM
Hamsat 27 Aug 18:39:57 18:44:17 88° 75° (ENE) 18:48:40 145.90 MHz
AO-7 27 Aug 18:46:12 18:52:39 24° 271° (W) 18:59:08 29.400 - 29.500 MHz
SO-67 27 Aug 18:46:47 18:49:02 17° 62° (ENE) 18:51:18 435.3500 MHz FM
ISS 27 Aug 19:00:28 19:03:13 24° 214° (SW) 19:05:58 145.800 FM
MaSat-1 27 Aug 19:19:07 19:19:48 10° 350° (N) 19:20:29 437.345 MHz
Sapphire 27 Aug 19:33:17 19:38:42 88° 126° (SE) 19:44:11 437.095 MHz 1200 baud AX-25 AFSK
STRAND 1 27 Aug 19:35:09 19:39:01 21° 91° (E) 19:42:52 ?
OPAL 27 Aug 19:35:31 19:40:16 37° 299° (WNW) 19:45:02 ?
PCSat 27 Aug 20:03:20 20:08:41 58° 313° (NW) 20:14:04 145.825 MHz
RS-15 27 Aug 20:06:11 20:15:05 30° 255° (WSW) 20:24:16 29.354 - 29.394 USB, Beacon 29.352 USB
UKube-1 27 Aug 20:15:51 20:16:19 10° 51° (NE) 20:16:46 145.840 MHz, 145.915 MHz
JAS-2 27 Aug 20:16:40 20:21:16 22° 269° (W) 20:25:33 435.800 - 435.900 CW/SSB, 435.910 FM
HO-68 27 Aug 20:18:10 20:24:26 35° 55° (NE) 20:30:44 435.675 MHz FM
SO-67 27 Aug 20:18:26 20:21:47 46° 261° (W) 20:25:10 435.3500 MHz FM
Hamsat 27 Aug 20:19:06 20:20:54 12° 274° (W) 20:22:43 145.90 MHz
MaSat-1 27 Aug 20:57:51 20:59:14 11° 14° (NNE) 21:00:36 437.345 MHz
STRAND 1 27 Aug 21:13:36 21:18:40 65° 290° (WNW) 21:23:43 ?
Sapphire 27 Aug 21:18:14 21:22:50 27° 329° (NNW) 21:27:26 437.095 MHz 1200 baud AX-25 AFSK
UKube-1 27 Aug 21:47:22 21:51:39 59° 70° (ENE) 21:55:57 145.840 MHz, 145.915 MHz
PCSat 27 Aug 21:49:11 21:53:14 21° 337° (NNW) 21:57:19 145.825 MHz
Oscar 11 27 Aug 21:57:05 22:01:14 46° 69° (ENE) 22:05:25 145.825 FM, Beacon 2401.500 USB
HO-68 27 Aug 22:04:42 22:11:47 65° 256° (WSW) 22:18:55 435.675 MHz FM
FUNcube-1 27 Aug 22:14:22 22:17:59 29° 64° (ENE) 22:21:41 145.950 - 145.970 MHz USB
MaSat-1 27 Aug 22:33:59 22:38:07 25° 38° (NE) 22:41:54 437.345 MHz
STRAND 1 27 Aug 22:54:35 22:56:57 13° 310° (NW) 22:59:19 ?
Sapphire 27 Aug 23:05:00 23:08:08 15° 354° (N) 23:11:16 437.095 MHz 1200 baud AX-25 AFSK
UKube-1 27 Aug 23:25:13 23:28:15 18° 269° (W) 23:31:17 145.840 MHz, 145.915 MHz
Oscar 11 27 Aug 23:34:10 23:37:39 23° 268° (W) 23:41:10 145.825 FM, Beacon 2401.500 USB
PCSat 27 Aug 23:35:41 23:38:46 15° 3° (N) 23:41:50 145.825 MHz
FUNcube-1 27 Aug 23:50:29 23:54:20 35° 264° (W) 23:58:16 145.950 - 145.970 MHz USB
HO-68 27 Aug 23:57:25 00:00:57 14° 277° (W) 00:04:29 435.675 MHz FM
KITSAT 1 27 Aug 23:58:06 00:03:47 22° 103° (ESE) 00:09:28 435.175 FM
MaSat-1 28 Aug 00:10:52 00:15:45 73° 241° (WSW) 00:20:02 437.345 MHz
Saudisat 1A 28 Aug 00:39:14 00:43:24 43° 123° (ESE) 00:47:36 436.775 MHz
Sapphire 28 Aug 00:49:51 00:53:43 19° 20° (NNE) 00:57:35 437.095 MHz 1200 baud AX-25 AFSK
PCSat 28 Aug 01:19:43 01:24:09 25° 29° (NNE) 01:28:34 145.825 MHz
KITSAT 1 28 Aug 01:49:54 01:57:59 79° 125° (SE) 02:06:06 435.175 FM
MaSat-1 28 Aug 01:50:33 01:51:44 11° 263° (W) 01:52:53 437.345 MHz
Oscar 16 28 Aug 02:11:44 02:15:23 19° 89° (E) 02:19:00 437.025 USB, Beacon 2401.1428
Saudisat 1A 28 Aug 02:18:55 02:23:04 38° 323° (NW) 02:27:15 436.775 MHz
AO-Echo 28 Aug 02:30:37 02:32:20 12° 85° (E) 02:34:03 ?
AO-27 28 Aug 02:31:57 02:34:12 13° 85° (E) 02:36:27 436.795 MHz FM
Sapphire 28 Aug 02:33:07 02:38:26 50° 44° (NE) 02:43:42 437.095 MHz 1200 baud AX-25 AFSK
PCSat 28 Aug 03:02:57 03:08:26 78° 52° (NE) 03:13:52 145.825 MHz
Oscar 19 28 Aug 03:15:43 03:20:53 58° 101° (E) 03:26:00 437.125 CW, 437.150 USB
TMSAT-1 28 Aug 03:35:18 03:38:38 17° 87° (E) 03:41:58 436.925 FM
JAS-1B 28 Aug 03:36:47 03:43:37 41° 94° (E) 03:49:27 435.800 - 435.900 CW/SSB
OPAL 28 Aug 03:39:12 03:43:14 24° 55° (NE) 03:47:18 ?
ITAMSAT 1 28 Aug 03:41:15 03:46:14 45° 99° (E) 03:51:12 435.822 SSB
KITSAT 1 28 Aug 03:46:31 03:54:07 42° 330° (NNW) 04:01:45 435.175 FM
Oscar 16 28 Aug 03:50:06 03:55:19 75° 288° (WNW) 04:00:30 437.025 USB, Beacon 2401.1428
Uribyol 2 28 Aug 03:51:56 03:57:05 58° 102° (ESE) 04:02:12 436.500 FM
Saudisat 1A 28 Aug 04:00:57 04:03:49 17° 347° (NNW) 04:06:40 436.775 MHz
AO-Echo 28 Aug 04:07:11 04:11:56 82° 105° (ESE) 04:16:38 ?
AO-27 28 Aug 04:09:24 04:14:37 77° 104° (ESE) 04:19:48 436.795 MHz FM
Sapphire 28 Aug 04:16:48 04:21:46 37° 245° (WSW) 04:26:42 437.095 MHz 1200 baud AX-25 AFSK
Gurwin Techsat 1B 28 Aug 04:20:27 04:25:37 49° 99° (E) 04:30:44 435.225 FM
AO-7 28 Aug 04:46:59 04:53:10 22° 88° (E) 04:59:17 29.400 - 29.500 MHz
PCSat 28 Aug 04:47:14 04:51:17 22° 252° (WSW) 04:55:18 145.825 MHz
Oscar 19 28 Aug 04:55:38 04:59:55 26° 301° (WNW) 05:04:10 437.125 CW, 437.150 USB
Uosat F 28 Aug 04:55:51 04:59:04 17° 89° (E) 05:02:16 435.120 FM
TMSAT-1 28 Aug 05:13:56 05:19:17 85° 287° (WNW) 05:24:35 436.925 FM
OPAL 28 Aug 05:16:40 05:21:42 66° 255° (WSW) 05:26:51 ?
ITAMSAT 1 28 Aug 05:21:03 05:25:37 32° 298° (WNW) 05:30:10 435.822 SSB
STRAND 1 28 Aug 05:21:27 05:22:41 11° 47° (NE) 05:23:54 ?
JAS-1B 28 Aug 05:27:23 05:34:26 46° 299° (WNW) 05:40:24 435.800 - 435.900 CW/SSB
Oscar 16 28 Aug 05:30:53 05:33:52 16° 308° (NW) 05:36:50 437.025 USB, Beacon 2401.1428
Uribyol 2 28 Aug 05:32:00 05:36:15 26° 301° (WNW) 05:40:30 436.500 FM
Saudisat 1A 28 Aug 05:42:18 05:45:03 16° 11° (N) 05:47:48 436.775 MHz
KITSAT 1 28 Aug 05:45:02 05:51:49 28° 358° (N) 05:58:36 435.175 FM
AO-Echo 28 Aug 05:47:08 05:50:09 17° 305° (NW) 05:53:09 ?
SO-50 28 Aug 05:49:17 05:53:38 51° 124° (SE) 05:58:08 436.795 FM
AO-27 28 Aug 05:49:49 05:53:37 21° 304° (NW) 05:57:23 436.795 MHz FM
Gurwin Techsat 1B 28 Aug 06:00:47 06:05:25 32° 299° (WNW) 06:10:02 435.225 FM
